#�ϑ�����,���ϕ���,���ϕ���,�ő啗��,�ő啗����������,�ő�u�ԕ���,�ő�u�ԕ�����������
#(�N����),(m/s)   ,(16����),(m/s)   ,(16����)        ,(m/s)       ,(16����)            
2013/8/5 8:14,0.2,3,0.2,4,0.4,3
2013/8/5 8:15,0.4,4,0.4,3,0.8,4
2013/8/5 8:16,0.5,4,0.5,4,0.9,6
2013/8/5 8:17,0.4,4,0.5,4,0.5,4
2013/8/5 8:18,0.3,4,0.4,4,0.9,6
2013/8/5 8:19,0.5,5,0.5,4,1.3,7
2013/8/5 8:20,0.5,5,0.5,4,1,6
2013/8/5 8:21,0.6,5,0.6,5,1.3,6
2013/8/5 8:22,0.6,5,0.6,5,1.3,6
2013/8/5 8:23,0.6,5,0.6,5,0.8,8
2013/8/5 8:24,0.6,6,0.6,5,0.8,6
2013/8/5 8:25,0.6,6,0.6,5,0.6,5
2013/8/5 8:26,0.6,6,0.6,5,1,6
2013/8/5 8:27,0.6,6,0.6,5,0.9,5
2013/8/5 8:28,0.7,6,0.7,6,1.1,5
2013/8/5 8:29,0.6,6,0.7,6,0.8,6
2013/8/5 8:30,0.6,6,0.7,6,1,6
2013/8/5 8:31,0.6,6,0.6,6,0.8,6
2013/8/5 8:32,0.6,6,0.6,6,0.8,7
2013/8/5 8:33,0.6,6,0.6,6,0.5,6
2013/8/5 8:34,0.6,6,0.6,6,0.8,6
2013/8/5 8:35,0.6,6,0.6,6,0.8,6
2013/8/5 8:36,0.5,6,0.6,6,0.6,6
2013/8/5 8:37,0.5,6,0.5,6,0.6,8
2013/8/5 8:38,0.4,6,0.5,6,0.5,8
2013/8/5 8:39,0.4,7,0.4,6,1.1,6
2013/8/5 8:40,0.4,6,0.4,6,1.1,6
2013/8/5 8:41,0.4,6,0.4,6,0.5,4
2013/8/5 8:42,0.3,6,0.4,6,0.3,8
2013/8/5 8:43,0.3,6,0.3,6,1.1,7
2013/8/5 8:44,0.3,6,0.3,6,1.1,6
2013/8/5 8:45,0.3,6,0.4,6,0.9,5
2013/8/5 8:46,0.3,6,0.4,6,0.8,7
2013/8/5 8:47,0.3,6,0.3,6,0.1,3
2013/8/5 8:48,0.3,6,0.3,6,0.1,3
2013/8/5 8:49,0.3,6,0.3,7,0.8,7
2013/8/5 8:50,0.3,6,0.3,6,0.8,7
2013/8/5 8:51,0.3,7,0.3,6,0.9,8
2013/8/5 8:52,0.3,7,0.3,6,0.5,8
2013/8/5 8:53,0.3,7,0.3,6,0.3,9
2013/8/5 8:54,0.2,8,0.3,6,0.1,10
2013/8/5 8:55,0.1,8,0.2,6,0.1,10
2013/8/5 8:56,0.1,9,0.1,6,0.1,10
2013/8/5 8:57,0.1,9,0.1,6,0.5,10
2013/8/5 8:58,0.2,9,0.2,6,0.9,11
2013/8/5 8:59,0.2,10,0.2,6,1,9
2013/8/5 9:00,0.2,10,0.2,6,0.4,8
2013/8/5 9:01,0.1,10,0.2,7,0.4,7
2013/8/5 9:02,0.2,10,0.2,7,0.5,7
2013/8/5 9:03,0.2,10,0.2,7,0.5,6
2013/8/5 9:04,0.2,10,0.2,8,0.3,8
2013/8/5 9:05,0.2,9,0.2,9,0.6,8
2013/8/5 9:06,0.2,9,0.2,9,0.5,10
2013/8/5 9:07,0.2,9,0.3,9,0.4,10
2013/8/5 9:08,0.2,9,0.2,9,0.1,10
2013/8/5 9:09,0.1,9,0.2,9,0.1,7
2013/8/5 9:10,0.1,9,0.1,9,0.4,8
2013/8/5 9:11,0.2,8,0.2,9,0.9,3
2013/8/5 9:12,0.2,9,0.2,9,0.9,7
2013/8/5 9:13,0.2,8,0.2,9,0.5,6
2013/8/5 9:14,0.2,8,0.2,9,0.4,5
2013/8/5 9:15,0.2,8,0.2,9,0.5,4
2013/8/5 9:16,0.2,7,0.2,9,0.6,6
2013/8/5 9:17,0.3,7,0.3,7,0.8,4
2013/8/5 9:18,0.3,6,0.3,7,0.8,3
2013/8/5 9:19,0.4,5,0.4,5,1.1,4
2013/8/5 9:20,0.5,5,0.5,5,1.4,4
2013/8/5 9:21,0.5,5,0.5,5,1.4,4
2013/8/5 9:22,0.5,5,0.5,5,1.1,6
2013/8/5 9:23,0.6,4,0.6,5,0.9,7
2013/8/5 9:24,0.6,5,0.6,5,0.6,3
2013/8/5 9:25,0.6,5,0.6,5,0.5,5
2013/8/5 9:26,0.6,4,0.6,5,0.9,5
2013/8/5 9:27,0.6,4,0.6,5,0.4,4
2013/8/5 9:28,0.6,4,0.6,5,0.5,3
2013/8/5 9:29,0.5,4,0.6,5,0.9,2
2013/8/5 9:30,0.4,3,0.5,5,0.1,1
2013/8/5 9:31,0.4,3,0.4,5,1.3,6
2013/8/5 9:32,0.4,3,0.4,5,1.6,6
2013/8/5 9:33,0.5,4,0.5,4,1.3,6
2013/8/5 9:34,0.5,4,0.5,5,0.8,6
2013/8/5 9:35,0.5,4,0.5,5,0.8,5
2013/8/5 9:36,0.5,5,0.5,4,0.9,6
2013/8/5 9:37,0.5,5,0.5,4,1.3,5
2013/8/5 9:38,0.6,5,0.6,4,1.5,6
2013/8/5 9:39,0.7,6,0.7,6,1.5,6
2013/8/5 9:40,0.8,6,0.8,6,1.3,7
2013/8/5 9:41,0.7,6,0.8,6,0.4,9
2013/8/5 9:42,0.6,7,0.7,6,0.3,10
2013/8/5 9:43,0.5,7,0.6,6,0.1,9
2013/8/5 9:44,0.5,7,0.5,6,1.8,8
2013/8/5 9:45,0.6,7,0.6,6,2,9
2013/8/5 9:46,0.6,7,0.6,6,1.3,8
2013/8/5 9:47,0.6,7,0.6,6,0.1,8
2013/8/5 9:48,0.5,8,0.6,6,0.5,9
2013/8/5 9:49,0.5,8,0.5,6,1.4,8
2013/8/5 9:50,0.5,8,0.5,6,1.1,7
2013/8/5 9:51,0.5,8,0.5,6,1.1,7
2013/8/5 9:52,0.6,7,0.6,7,2.4,6
2013/8/5 9:53,0.8,7,0.8,7,2.7,5
2013/8/5 9:54,0.8,7,0.8,7,2.1,4
2013/8/5 9:55,0.9,6,0.9,6,2.2,2
2013/8/5 9:56,1,6,1,6,1.9,4
2013/8/5 9:57,1.1,5,1.1,5,1.6,2
2013/8/5 9:58,1.1,4,1.1,5,1.3,4
2013/8/5 9:59,1,4,1.1,5,0.5,9
2013/8/5 10:00,1,4,1,5,0.6,7
2013/8/5 10:01,0.9,4,1,5,1.1,6
2013/8/5 10:02,1,4,1,5,1.5,4
2013/8/5 10:03,0.9,4,1,5,1.8,5
2013/8/5 10:04,0.9,4,0.9,5,2,4
2013/8/5 10:05,0.9,4,0.9,5,1.8,4
2013/8/5 10:06,0.8,4,0.9,5,1.4,5
2013/8/5 10:07,0.7,5,0.8,5,0.8,4
2013/8/5 10:08,0.7,5,0.7,4,0.9,3
2013/8/5 10:09,0.7,5,0.7,4,0.6,1
2013/8/5 10:10,0.7,5,0.7,4,0.5,8
2013/8/5 10:11,0.7,5,0.7,4,0.6,8
2013/8/5 10:12,0.6,5,0.7,4,0.8,9
2013/8/5 10:13,0.6,5,0.6,4,0.6,14
2013/8/5 10:14,0.5,7,0.6,4,1.4,10
2013/8/5 10:15,0.4,8,0.5,4,1,7
2013/8/5 10:16,0.4,9,0.4,4,1,8
2013/8/5 10:17,0.4,10,0.4,5,0.5,12
2013/8/5 10:18,0.4,10,0.4,5,0.6,11
2013/8/5 10:19,0.4,10,0.4,5,0.9,11
2013/8/5 10:20,0.5,10,0.5,5,1,10
2013/8/5 10:21,0.5,10,0.5,5,0.6,10
2013/8/5 10:22,0.5,11,0.5,5,0.9,10
2013/8/5 10:23,0.5,11,0.5,5,0.8,15
2013/8/5 10:24,0.4,11,0.5,7,0.6,15
2013/8/5 10:25,0.4,11,0.4,10,0.5,15
2013/8/5 10:26,0.4,11,0.4,10,0.6,6
2013/8/5 10:27,0.4,11,0.4,10,0.8,6
2013/8/5 10:28,0.4,11,0.4,10,1.3,12
2013/8/5 10:29,0.4,11,0.4,10,1.6,10
2013/8/5 10:30,0.4,11,0.4,10,1,10
2013/8/5 10:31,0.5,11,0.5,10,2.2,9
2013/8/5 10:32,0.6,10,0.6,11,2.2,9
2013/8/5 10:33,0.7,10,0.7,10,1.9,9
2013/8/5 10:34,0.7,10,0.7,10,1.3,10
2013/8/5 10:35,0.7,9,0.7,10,1.1,13
2013/8/5 10:36,0.7,9,0.7,10,1.1,3
2013/8/5 10:37,0.7,9,0.7,10,1,16
2013/8/5 10:38,0.8,9,0.8,9,0.9,4
2013/8/5 10:39,0.7,9,0.8,9,0.3,8
2013/8/5 10:40,0.7,9,0.7,9,0.9,13
2013/8/5 10:41,0.6,10,0.7,9,1.4,14
2013/8/5 10:42,0.5,9,0.6,9,0.8,7
2013/8/5 10:43,0.4,10,0.5,9,1,9
2013/8/5 10:44,0.4,9,0.4,9,1.1,5
2013/8/5 10:45,0.5,8,0.5,9,1.8,1
2013/8/5 10:46,0.5,9,0.5,9,1.5,1
2013/8/5 10:47,0.5,15,0.5,9,0.8,1
2013/8/5 10:48,0.6,16,0.6,9,1.3,3
2013/8/5 10:49,0.6,1,0.6,9,1.4,2
2013/8/5 10:50,0.6,2,0.7,9,0.6,2
2013/8/5 10:51,0.6,2,0.6,1,1.5,16
2013/8/5 10:52,0.7,2,0.7,1,2.5,3
2013/8/5 10:53,0.8,2,0.8,2,1.8,3
2013/8/5 10:54,0.9,2,0.9,2,1.6,3
2013/8/5 10:55,0.8,3,0.9,2,1.1,4
2013/8/5 10:56,0.7,3,0.8,2,0.3,3
2013/8/5 10:57,0.8,3,0.8,2,1.6,8
2013/8/5 10:58,0.8,3,0.8,2,2.5,9
2013/8/5 10:59,0.9,4,0.9,2,3.3,10
2013/8/5 11:00,1,5,1,5,2.7,9
2013/8/5 11:01,1.1,6,1.1,6,2,8
2013/8/5 11:02,1,7,1.1,6,0.5,8
2013/8/5 11:03,0.8,8,1,6,0.3,6
2013/8/5 11:04,0.8,8,0.8,6,1.1,3
2013/8/5 11:05,0.9,7,0.9,6,2,3
2013/8/5 11:06,1,7,1,6,2,3
2013/8/5 11:07,1.1,7,1.1,6,2.6,2
2013/8/5 11:08,1.1,6,1.2,6,2,6
2013/8/5 11:09,1,6,1.1,6,1.5,8
2013/8/5 11:10,1,6,1,6,1.1,8
2013/8/5 11:11,0.9,6,0.9,6,1,9
2013/8/5 11:12,0.9,6,0.9,6,0.9,6
2013/8/5 11:13,1,5,1,6,0.8,6
2013/8/5 11:14,0.9,6,1,6,1,5
2013/8/5 11:15,0.9,6,0.9,6,1.8,4
2013/8/5 11:16,0.8,6,0.9,6,1.4,4
2013/8/5 11:17,0.8,6,0.8,6,1.8,5
2013/8/5 11:18,0.7,6,0.8,6,1.4,5
2013/8/5 11:19,0.8,5,0.8,6,1.5,3
2013/8/5 11:20,0.7,5,0.8,5,1.5,3
2013/8/5 11:21,0.8,5,0.8,5,1.4,7
2013/8/5 11:22,0.8,5,0.8,5,1.3,7
2013/8/5 11:23,0.8,5,0.8,5,0.9,2
2013/8/5 11:24,0.9,5,0.9,6,1.5,2
2013/8/5 11:25,0.9,5,0.9,6,1.3,16
2013/8/5 11:26,0.8,4,0.8,5,1,2
2013/8/5 11:27,0.7,4,0.8,5,0.8,2
2013/8/5 11:28,0.7,5,0.7,5,0.6,11
2013/8/5 11:29,0.6,6,0.7,5,0.5,10
2013/8/5 11:30,0.6,6,0.6,5,1.3,7
2013/8/5 11:31,0.6,7,0.6,5,1.9,9
2013/8/5 11:32,0.6,8,0.6,5,1.1,9
2013/8/5 11:33,0.7,9,0.7,5,2.1,10
2013/8/5 11:34,0.7,10,0.7,4,2,10
2013/8/5 11:35,0.7,9,0.7,5,1.3,7
2013/8/5 11:36,0.8,9,0.8,4,1.4,9
2013/8/5 11:37,0.8,9,0.8,9,1.1,8
2013/8/5 11:38,0.8,9,0.8,9,0.9,7
2013/8/5 11:39,0.9,9,0.9,9,1.3,11
2013/8/5 11:40,0.9,9,0.9,9,1.6,12
2013/8/5 11:41,0.9,10,0.9,9,1.5,12
2013/8/5 11:42,0.9,10,0.9,9,1,12
2013/8/5 11:43,0.8,10,0.9,9,0.4,12
2013/8/5 11:44,0.7,10,0.8,9,0.4,6
2013/8/5 11:45,0.7,10,0.7,9,1,7
2013/8/5 11:46,0.7,9,0.7,9,1,7
2013/8/5 11:47,0.6,9,0.7,9,1,8
2013/8/5 11:48,0.7,9,0.7,9,1.5,9
2013/8/5 11:49,0.6,9,0.7,9,1,9
2013/8/5 11:50,0.6,9,0.6,9,1,8
2013/8/5 11:51,0.6,8,0.6,10,0.9,8
2013/8/5 11:52,0.5,8,0.5,10,0.8,7
2013/8/5 11:53,0.6,8,0.6,10,0.9,6
2013/8/5 11:54,0.6,7,0.6,10,0.8,7
2013/8/5 11:55,0.6,8,0.6,10,0.5,11
2013/8/5 11:56,0.6,8,0.6,9,1,12
2013/8/5 11:57,0.5,8,0.6,9,0.4,12
2013/8/5 11:58,0.5,9,0.5,9,1,13
2013/8/5 11:59,0.5,9,0.5,9,1.1,13
2013/8/5 12:00,0.5,10,0.5,9,1.1,13
2013/8/5 12:01,0.5,11,0.5,8,1.1,12
2013/8/5 12:02,0.6,12,0.6,8,1,13
2013/8/5 12:03,0.6,12,0.6,8,0.9,14
2013/8/5 12:04,0.6,12,0.6,7,0.9,14
2013/8/5 12:05,0.6,13,0.6,8,0.8,13
2013/8/5 12:06,0.6,13,0.6,8,0.8,14
2013/8/5 12:07,0.6,13,0.6,11,1,14
2013/8/5 12:08,0.6,13,0.6,11,0.9,14
2013/8/5 12:09,0.6,13,0.6,11,1.5,11
2013/8/5 12:10,0.6,13,0.6,11,1.5,11
2013/8/5 12:11,0.6,13,0.6,11,1.3,12
2013/8/5 12:12,0.6,13,0.6,12,0.5,12
2013/8/5 12:13,0.6,13,0.6,12,0.5,15
2013/8/5 12:14,0.6,13,0.6,12,0.6,14
2013/8/5 12:15,0.5,13,0.6,13,0.6,13
2013/8/5 12:16,0.5,13,0.5,13,0.1,1
2013/8/5 12:17,0.5,14,0.5,13,0.9,1
2013/8/5 12:18,0.6,14,0.6,13,1.5,16
2013/8/5 12:19,0.6,14,0.6,13,1.1,15
2013/8/5 12:20,0.5,15,0.5,13,1.5,15
2013/8/5 12:21,0.6,15,0.6,13,2,16
2013/8/5 12:22,0.7,15,0.7,15,2,16
2013/8/5 12:23,0.8,15,0.8,15,2,16
2013/8/5 12:24,1,16,1,16,2.2,1
2013/8/5 12:25,1,16,1,16,1.6,15
2013/8/5 12:26,1.1,16,1.1,16,1.5,16
2013/8/5 12:27,1.3,16,1.3,16,2.1,1
2013/8/5 12:28,1.3,16,1.3,16,1.9,16
2013/8/5 12:29,1.4,16,1.4,16,2.2,16
2013/8/5 12:30,1.5,16,1.5,16,2.6,16
2013/8/5 12:31,1.6,16,1.6,16,2.4,1
2013/8/5 12:32,1.5,16,1.6,16,2,16
2013/8/5 12:33,1.5,16,1.5,16,1.8,1
2013/8/5 12:34,1.4,16,1.5,16,1.8,16
2013/8/5 12:35,1.4,16,1.4,16,1.6,16
2013/8/5 12:36,1.4,16,1.4,16,0.8,2
2013/8/5 12:37,1.2,16,1.4,16,1,2
2013/8/5 12:38,1.2,1,1.2,16,1.1,2
2013/8/5 12:39,1.1,1,1.2,16,1.4,1
2013/8/5 12:40,1,1,1.1,16,1.4,16
2013/8/5 12:41,1,1,1,16,1.3,16
2013/8/5 12:42,0.9,1,1,16,1.3,1
2013/8/5 12:43,0.9,1,0.9,16,1.8,16
2013/8/5 12:44,0.9,1,0.9,16,1.3,16
2013/8/5 12:45,0.9,1,0.9,16,2,16
2013/8/5 12:46,0.9,1,0.9,16,1.5,16
2013/8/5 12:47,1,1,1,16,1.4,16
2013/8/5 12:48,1,16,1,1,1.8,16
2013/8/5 12:49,1,16,1,1,1.5,14
2013/8/5 12:50,1,16,1,1,2,15
2013/8/5 12:51,0.9,16,1,1,1.3,15
2013/8/5 12:52,0.9,16,0.9,1,0.8,16
2013/8/5 12:53,0.8,16,0.9,1,1.1,14
2013/8/5 12:54,0.8,16,0.8,1,1.5,15
2013/8/5 12:55,0.8,16,0.8,1,1.4,15
2013/8/5 12:56,0.7,16,0.8,1,0.6,1
2013/8/5 12:57,0.6,16,0.7,1,0.9,2
2013/8/5 12:58,0.6,16,0.6,16,1.6,3
2013/8/5 12:59,0.7,16,0.7,16,2,4
2013/8/5 13:00,0.7,1,0.7,16,1.8,2
2013/8/5 13:01,0.8,1,0.8,16,2.2,3
2013/8/5 13:02,0.9,1,0.9,16,2,3
2013/8/5 13:03,1,2,1,1,1.4,4
2013/8/5 13:04,1,2,1,1,1.5,4
2013/8/5 13:05,1,2,1,1,1.8,2
2013/8/5 13:06,1.1,3,1.1,3,1,5
2013/8/5 13:07,1.1,3,1.1,3,1,5
2013/8/5 13:08,1,3,1.1,3,0.8,5
2013/8/5 13:09,0.9,3,1,3,1.1,2
2013/8/5 13:10,0.9,3,1,3,1.1,1
2013/8/5 13:11,0.8,3,0.9,3,1,2
2013/8/5 13:12,0.7,3,0.8,3,1.1,15
2013/8/5 13:13,0.6,3,0.7,3,0.9,1
2013/8/5 13:14,0.6,3,0.6,3,0.9,3
2013/8/5 13:15,0.5,3,0.6,3,1.6,15
2013/8/5 13:16,0.5,2,0.5,3,0.9,14
2013/8/5 13:17,0.5,2,0.5,3,1.4,16
2013/8/5 13:18,0.6,1,0.6,3,2.1,2
2013/8/5 13:19,0.8,1,0.8,3,2.6,2
2013/8/5 13:20,0.8,1,0.8,3,2.2,2
2013/8/5 13:21,0.9,1,0.9,1,2.2,2
2013/8/5 13:22,1,2,1,2,2.2,2
2013/8/5 13:23,1.1,2,1.1,2,2.1,3
2013/8/5 13:24,1.2,2,1.2,2,1.6,2
2013/8/5 13:25,1.2,2,1.2,2,1.3,1
2013/8/5 13:26,1.3,2,1.3,2,1.5,15
2013/8/5 13:27,1.4,2,1.4,2,2.7,16
2013/8/5 13:28,1.4,2,1.4,2,2.4,1
2013/8/5 13:29,1.3,2,1.4,2,1.5,15
2013/8/5 13:30,1.2,1,1.3,2,2.7,16
2013/8/5 13:31,1.3,1,1.3,2,2.6,16
2013/8/5 13:32,1.3,1,1.3,2,2,16
2013/8/5 13:33,1.2,1,1.3,2,1.8,2
2013/8/5 13:34,1.2,1,1.2,2,2.2,1
2013/8/5 13:35,1.3,1,1.3,2,2.4,1
2013/8/5 13:36,1.2,1,1.3,2,1.3,1
2013/8/5 13:37,1.1,1,1.2,2,1,2
2013/8/5 13:38,1.1,1,1.1,2,1.3,3
2013/8/5 13:39,1,1,1,2,1.3,4
2013/8/5 13:40,1,2,1.1,1,1.4,5
2013/8/5 13:41,0.9,2,1,1,1.5,16
2013/8/5 13:42,1,2,1,1,1.8,1
2013/8/5 13:43,1,2,1,1,1.6,4
2013/8/5 13:44,0.9,2,1,1,1.9,16
2013/8/5 13:45,0.9,2,0.9,1,1.3,3
2013/8/5 13:46,0.9,2,0.9,1,1,1
2013/8/5 13:47,0.9,2,0.9,1,1,3
2013/8/5 13:48,0.8,2,0.8,2,1.1,4
2013/8/5 13:49,0.8,2,0.8,2,1.1,6
2013/8/5 13:50,0.9,3,0.9,2,1.9,5
2013/8/5 13:51,0.9,3,0.9,2,1.8,6
2013/8/5 13:52,0.9,4,0.9,2,2.1,5
2013/8/5 13:53,1,4,1,2,2.1,6
2013/8/5 13:54,1.1,5,1.1,4,2.2,8
2013/8/5 13:55,1.2,5,1.2,5,2.5,5
2013/8/5 13:56,1.2,5,1.2,5,2.2,5
2013/8/5 13:57,1.3,5,1.3,5,2,4
2013/8/5 13:58,1.2,5,1.3,5,1,8
2013/8/5 13:59,1.2,5,1.2,5,1.4,7
2013/8/5 14:00,1.2,6,1.2,5,2.1,8
2013/8/5 14:01,1.1,6,1.2,5,1.1,6
2013/8/5 14:02,1.1,6,1.1,5,1.3,5
2013/8/5 14:03,1,6,1.1,5,1.8,6
2013/8/5 14:04,0.9,6,1,5,1.8,6
2013/8/5 14:05,0.9,6,0.9,5,1.9,7
2013/8/5 14:06,0.8,6,0.9,5,1.5,8
2013/8/5 14:07,0.8,7,0.8,5,2.1,9
2013/8/5 14:08,0.9,7,0.9,5,1.9,8
2013/8/5 14:09,0.9,7,0.9,5,2,10
2013/8/5 14:10,0.9,8,0.9,6,1,10
2013/8/5 14:11,0.9,8,0.9,6,0.8,14
2013/8/5 14:12,0.8,9,0.9,6,0.5,11
2013/8/5 14:13,0.7,10,0.8,6,0.3,16
2013/8/5 14:14,0.7,10,0.7,6,1.8,8
2013/8/5 14:15,0.7,10,0.7,6,1.8,6
2013/8/5 14:16,0.7,10,0.7,7,1.9,6
2013/8/5 14:17,0.7,10,0.7,7,1.5,5
2013/8/5 14:18,0.7,9,0.7,7,1.4,8
2013/8/5 14:19,0.6,8,0.7,7,1,8
2013/8/5 14:20,0.6,7,0.6,8,1.4,11
2013/8/5 14:21,0.6,7,0.6,8,2.4,7
2013/8/5 14:22,0.8,6,0.8,9,2.4,6
2013/8/5 14:23,0.9,6,0.9,6,2.5,6
2013/8/5 14:24,1,7,1,6,1.8,8
2013/8/5 14:25,1,7,1,6,2.1,6
2013/8/5 14:26,1,7,1,6,1.6,6
2013/8/5 14:27,1,7,1,6,1.8,8
2013/8/5 14:28,1,7,1,6,1.3,8
2013/8/5 14:29,1.1,7,1.1,7,2.7,9
2013/8/5 14:30,1.1,8,1.1,7,1.6,9
2013/8/5 14:31,1.1,8,1.1,7,1.3,10
2013/8/5 14:32,1,8,1.1,7,1.6,8
2013/8/5 14:33,1,8,1,7,1.8,10
2013/8/5 14:34,1,8,1,7,1.6,9
2013/8/5 14:35,1,9,1,7,2.2,9
2013/8/5 14:36,1,9,1,7,1.6,11
2013/8/5 14:37,1,8,1,7,1.3,8
2013/8/5 14:38,1,8,1,7,1.5,7
2013/8/5 14:39,0.9,8,1,7,1.5,5
2013/8/5 14:40,0.9,8,1,8,1.9,7
2013/8/5 14:41,0.9,8,1,8,1.5,4
2013/8/5 14:42,0.9,7,0.9,8,1.9,4
2013/8/5 14:43,0.9,7,0.9,8,1.5,5
2013/8/5 14:44,0.9,6,0.9,8,1.5,5
2013/8/5 14:45,0.9,6,0.9,9,2.5,6
2013/8/5 14:46,0.9,6,0.9,9,1.9,6
2013/8/5 14:47,0.9,6,0.9,8,1.4,5
2013/8/5 14:48,1,6,1,8,1.8,5
2013/8/5 14:49,1,6,1,8,1.8,5
2013/8/5 14:50,1,5,1,8,2,6
2013/8/5 14:51,1,6,1,6,2.1,6
2013/8/5 14:52,1,6,1,6,2.4,6
2013/8/5 14:53,1.1,6,1.1,6,1.6,4
2013/8/5 14:54,1.1,5,1.1,6,1.9,6
2013/8/5 14:55,1.1,5,1.1,6,1.4,5
2013/8/5 14:56,1,5,1.1,6,1.5,5
2013/8/5 14:57,0.9,5,1,6,0.6,5
2013/8/5 14:58,0.9,5,0.9,6,1,5
2013/8/5 14:59,0.8,5,0.9,6,0.4,4
2013/8/5 15:00,0.7,5,0.8,6,0.4,10
2013/8/5 15:01,0.7,6,0.7,6,0.6,11
2013/8/5 15:02,0.6,6,0.7,6,0.5,11
2013/8/5 15:03,0.5,6,0.5,6,0.4,3
2013/8/5 15:04,0.4,6,0.5,5,0.8,1
2013/8/5 15:05,0.3,8,0.4,5,0.9,15
2013/8/5 15:06,0.3,13,0.3,5,0.8,15
2013/8/5 15:07,0.3,14,0.3,5,0.6,15
2013/8/5 15:08,0.3,14,0.3,5,0.3,15
2013/8/5 15:09,0.3,14,0.3,5,0.1,15
2013/8/5 15:10,0.3,14,0.3,5,0.3,14
2013/8/5 15:11,0.2,15,0.2,6,0.3,12
2013/8/5 15:12,0.2,15,0.2,6,0.6,10
2013/8/5 15:13,0.3,14,0.3,6,0.6,10
2013/8/5 15:14,0.3,14,0.3,7,0.8,9
2013/8/5 15:15,0.3,13,0.3,8,1.5,8
2013/8/5 15:16,0.4,12,0.4,13,2.1,7
2013/8/5 15:17,0.5,11,0.5,11,2,6
2013/8/5 15:18,0.6,9,0.6,10,1.5,6
2013/8/5 15:19,0.6,9,0.6,10,2.4,8
2013/8/5 15:20,0.8,8,0.8,8,2.4,8
2013/8/5 15:21,0.9,8,0.9,8,1.4,8
2013/8/5 15:22,0.9,8,0.9,8,1.5,7
2013/8/5 15:23,1,8,1,8,1.4,6
2013/8/5 15:24,1,7,1,8,1.3,6
2013/8/5 15:25,1,7,1,8,1.6,7
2013/8/5 15:26,1,7,1.1,7,2,6
2013/8/5 15:27,1,7,1,7,1.5,7
2013/8/5 15:28,1,7,1,7,1.9,8
2013/8/5 15:29,1,7,1.1,7,1.4,8
2013/8/5 15:30,1,7,1,7,1.8,7
2013/8/5 15:31,0.9,7,1,7,0.5,9
2013/8/5 15:32,0.8,7,0.9,7,0.3,7
2013/8/5 15:33,0.8,7,0.8,7,0.9,8
2013/8/5 15:34,0.8,7,0.8,7,1,8
2013/8/5 15:35,0.7,8,0.8,7,1,10
2013/8/5 15:36,0.7,8,0.7,7,1.1,9
2013/8/5 15:37,0.6,8,0.7,7,0.6,8
2013/8/5 15:38,0.5,8,0.6,7,1,9
2013/8/5 15:39,0.5,8,0.5,7,1.3,8
2013/8/5 15:40,0.5,8,0.5,7,1.5,6
2013/8/5 15:41,0.6,8,0.6,7,1.3,5
2013/8/5 15:42,0.7,7,0.7,7,1.1,5
2013/8/5 15:43,0.7,7,0.7,7,1.1,6
2013/8/5 15:44,0.7,7,0.7,7,1.1,7
2013/8/5 15:45,0.7,7,0.7,8,0.8,8
2013/8/5 15:46,0.6,8,0.7,8,0.4,10
2013/8/5 15:47,0.6,8,0.6,7,0.1,9
2013/8/5 15:48,0.6,8,0.6,7,1,10
2013/8/5 15:49,0.6,8,0.6,7,1.5,8
2013/8/5 15:50,0.6,8,0.6,7,1.1,8
2013/8/5 15:51,0.6,8,0.6,7,1,7
2013/8/5 15:52,0.5,8,0.5,7,0.4,9
2013/8/5 15:53,0.4,8,0.5,7,0.3,8
2013/8/5 15:54,0.4,9,0.4,7,0.5,8
2013/8/5 15:55,0.4,9,0.4,7,0.1,8
2013/8/5 15:56,0.4,9,0.4,8,0.5,14
2013/8/5 15:57,0.4,8,0.4,8,0.8,16
2013/8/5 15:58,0.4,8,0.4,8,1,1
2013/8/5 15:59,0.4,7,0.4,8,1.3,16
2013/8/5 16:00,0.4,5,0.4,8,1.3,2
2013/8/5 16:01,0.3,2,0.4,8,0.8,15
2013/8/5 16:02,0.4,1,0.4,8,1.1,2
2013/8/5 16:03,0.5,16,0.5,16,1.3,16
2013/8/5 16:04,0.5,16,0.5,16,1.5,16
2013/8/5 16:05,0.6,16,0.6,16,1.4,1
2013/8/5 16:06,0.6,1,0.6,16,1.3,2
2013/8/5 16:07,0.7,1,0.7,1,1.3,2
2013/8/5 16:08,0.7,1,0.7,1,0.9,2
2013/8/5 16:09,0.7,1,0.7,1,0.9,2
2013/8/5 16:10,0.7,1,0.7,1,1.1,1
2013/8/5 16:11,0.7,1,0.7,1,1.3,1
2013/8/5 16:12,0.7,1,0.7,1,1.3,16
2013/8/5 16:13,0.8,1,0.8,1,1.5,16
2013/8/5 16:14,0.8,1,0.8,1,1.8,1
2013/8/5 16:15,0.9,1,0.9,1,1.8,1
2013/8/5 16:16,0.9,1,0.9,1,1.9,16
2013/8/5 16:17,0.9,1,0.9,1,1.5,1
2013/8/5 16:18,0.9,1,1,1,1.5,2
2013/8/5 16:19,1,1,1,1,1.6,1
2013/8/5 16:20,1,1,1,1,1.3,2
2013/8/5 16:21,1,1,1,1,0.9,1
2013/8/5 16:22,1,1,1,1,1.3,3
2013/8/5 16:23,1,2,1,1,3.1,8
2013/8/5 16:24,1.2,2,1.2,2,3.9,7
2013/8/5 16:25,1.5,3,1.5,3,8.5,8
2013/8/5 16:26,1.8,4,1.8,4,6.3,7
2013/8/5 16:27,1.9,5,1.9,5,4.3,7
2013/8/5 16:28,2.2,6,2.2,6,4.2,6
2013/8/5 16:29,2.3,6,2.3,6,3.5,7
2013/8/5 16:30,2.3,6,2.3,6,3.1,6
2013/8/5 16:31,2.5,7,2.5,7,3.7,6
2013/8/5 16:32,2.5,7,2.5,7,3,5
2013/8/5 16:33,2.6,7,2.6,7,3.2,7
2013/8/5 16:34,2.5,6,2.6,7,2.1,6
2013/8/5 16:35,2.2,7,2.5,7,3.9,10
2013/8/5 16:36,2.1,7,2.2,7,4.1,9
2013/8/5 16:37,2,7,2.1,7,3.3,9
2013/8/5 16:38,1.9,7,2,7,3.7,10
2013/8/5 16:39,1.9,7,1.9,7,3.9,9
2013/8/5 16:40,2,8,2,7,4.2,9
2013/8/5 16:41,2.1,8,2.1,7,6.3,9
2013/8/5 16:42,2.1,8,2.1,7,4.8,9
2013/8/5 16:43,2.2,9,2.2,7,6.7,10
2013/8/5 16:44,2.3,9,2.3,6,6.5,9
2013/8/5 16:45,2.4,10,2.5,10,3.7,11
2013/8/5 16:46,2.4,10,2.4,10,2.7,12
2013/8/5 16:47,2.4,10,2.4,10,2.9,12
2013/8/5 16:48,2.5,10,2.5,10,3.5,12
2013/8/5 16:49,2.7,11,2.7,11,6.1,10
2013/8/5 16:50,2.8,11,2.9,11,8.4,10
2013/8/5 16:51,2.9,11,2.9,11,6.5,10
2013/8/5 16:52,2.8,11,2.9,11,3.7,8
2013/8/5 16:53,2.6,11,2.8,11,2.6,10
2013/8/5 16:54,2.6,11,2.6,11,3.8,11
2013/8/5 16:55,2.6,11,2.6,11,3.5,11
2013/8/5 16:56,2.7,11,2.7,11,3.1,12
2013/8/5 16:57,2.7,11,2.7,11,3.2,13
2013/8/5 16:58,2.7,11,2.8,11,2.9,14
2013/8/5 16:59,2.5,12,2.7,11,3.2,14
2013/8/5 17:00,2.3,12,2.4,11,3.7,16
2013/8/5 17:01,2.1,13,2.2,11,2.7,15
2013/8/5 17:02,2.2,13,2.2,11,3.5,13
2013/8/5 17:03,2.3,13,2.3,11,3.1,12
2013/8/5 17:04,2.3,13,2.3,11,4.2,13
2013/8/5 17:05,2.3,14,2.3,11,3.3,13
2013/8/5 17:06,2.2,14,2.3,11,3.7,12
2013/8/5 17:07,2.2,14,2.2,11,3.6,12
2013/8/5 17:08,2.3,13,2.3,11,4.5,13
2013/8/5 17:09,2.5,13,2.5,13,4.8,13
2013/8/5 17:10,2.6,13,2.6,13,5.5,13
2013/8/5 17:11,2.7,13,2.7,13,5.1,12
2013/8/5 17:12,2.7,13,2.8,13,3.7,12
2013/8/5 17:13,2.8,13,2.8,13,4.9,13
2013/8/5 17:14,2.8,13,2.8,13,4.5,12
2013/8/5 17:15,2.8,13,2.8,13,3.7,12
2013/8/5 17:16,2.8,13,2.8,13,3.9,13
2013/8/5 17:17,2.9,13,2.9,13,4.2,13
2013/8/5 17:18,2.8,13,2.9,13,3.3,13
2013/8/5 17:19,2.6,13,2.8,13,3.9,14
2013/8/5 17:20,2.5,13,2.6,13,3.1,15
2013/8/5 17:21,2.4,13,2.5,13,3,16
2013/8/5 17:22,2.4,14,2.4,13,3.8,15
2013/8/5 17:23,2.2,14,2.4,13,2.5,14
2013/8/5 17:24,2,14,2.1,13,2.1,13
2013/8/5 17:25,1.9,14,2,13,1.4,1
2013/8/5 17:26,1.6,14,1.8,13,1.5,2
2013/8/5 17:27,1.5,14,1.6,13,2.7,15
2013/8/5 17:28,1.4,14,1.5,13,1.5,11
2013/8/5 17:29,1.3,14,1.4,13,2.2,1
2013/8/5 17:30,1.5,14,1.5,13,6.9,15
2013/8/5 17:31,1.5,14,1.5,14,5.6,15
2013/8/5 17:32,1.8,14,1.8,14,6.3,15
2013/8/5 17:33,2.1,15,2.1,14,6,16
2013/8/5 17:34,2.2,15,2.2,15,5.7,14
2013/8/5 17:35,2.5,15,2.5,15,6,15
2013/8/5 17:36,2.7,15,2.7,15,5.4,15
2013/8/5 17:37,3.2,15,3.2,15,7.9,15
2013/8/5 17:38,3.5,15,3.5,15,6.9,15
2013/8/5 17:39,3.7,15,3.7,15,5.2,14
2013/8/5 17:40,3.8,15,3.8,15,6.3,15
2013/8/5 17:41,3.8,15,3.9,15,5.1,16
2013/8/5 17:42,3.5,15,3.8,15,3.5,15
2013/8/5 17:43,3.3,15,3.5,15,3.8,13
2013/8/5 17:44,3.2,15,3.3,15,3.3,14
2013/8/5 17:45,3,15,3.2,15,3.2,16
2013/8/5 17:46,2.9,15,3,15,4.9,15
2013/8/5 17:47,2.6,15,2.9,15,5.4,1
2013/8/5 17:48,2.5,15,2.6,15,5.1,16
2013/8/5 17:49,2.5,15,2.5,15,5,15
2013/8/5 17:50,2.4,15,2.5,15,5.5,15
2013/8/5 17:51,2.4,15,2.4,15,4.8,15
2013/8/5 17:52,2.6,15,2.6,15,7.1,16
2013/8/5 17:53,2.9,15,2.9,15,8.3,15
2013/8/5 17:54,3.2,15,3.2,15,6.9,15
2013/8/5 17:55,3.3,15,3.3,15,7.7,15
2013/8/5 17:56,3.6,15,3.6,15,8.3,15
2013/8/5 17:57,3.8,15,3.8,15,7,1
2013/8/5 17:58,3.7,15,3.8,15,6.9,16
2013/8/5 17:59,3.9,15,3.9,15,8.4,15
2013/8/5 18:00,4,15,4,15,6.3,1
2013/8/5 18:01,4,15,4.1,15,6,16
2013/8/5 18:02,4,15,4.1,15,6.1,15
2013/8/5 18:03,3.9,15,3.9,15,7.4,14
2013/8/5 18:04,4,15,4.1,15,8.3,16
2013/8/5 18:05,4.4,15,4.4,15,9.5,16
2013/8/5 18:06,4.3,15,4.4,15,8.4,16
2013/8/5 18:07,4.3,16,4.3,15,6.4,16
2013/8/5 18:08,4.4,16,4.4,15,8.1,16
2013/8/5 18:09,4.4,16,4.4,15,6.7,15
2013/8/5 18:10,4.4,16,4.4,15,6.4,16
2013/8/5 18:11,4.5,16,4.5,16,6.9,15
2013/8/5 18:12,4.4,16,4.4,16,4.9,16
2013/8/5 18:13,4.4,16,4.4,16,6.8,16
2013/8/5 18:14,4.1,16,4.3,16,5.6,1
2013/8/5 18:15,3.6,16,4.1,16,3.5,14
2013/8/5 18:16,3.4,16,3.5,16,5.5,15
2013/8/5 18:17,3.5,16,3.5,16,8.1,15
2013/8/5 18:18,3.6,16,3.6,16,7.2,15
2013/8/5 18:19,3.4,16,3.6,16,6,16
2013/8/5 18:20,3.4,16,3.5,16,6.4,15
2013/8/5 18:21,3.3,16,3.4,16,5.8,16
2013/8/5 18:22,3.3,15,3.4,16,5.7,14
2013/8/5 18:23,3.3,15,3.4,16,6.2,16
2013/8/5 18:24,3.5,15,3.5,16,6.5,15
2013/8/5 18:25,3.6,15,3.6,16,4.4,1
2013/8/5 18:26,3.6,15,3.6,16,4.3,16
2013/8/5 18:27,3.3,15,3.5,16,3.6,15
2013/8/5 18:28,3,16,3.2,16,3.5,16
2013/8/5 18:29,2.8,16,3,15,2.1,16
2013/8/5 18:30,2.7,16,2.8,15,2.9,1
2013/8/5 18:31,2.5,16,2.7,15,2.1,16
2013/8/5 18:32,2.3,16,2.5,15,3,3
2013/8/5 18:33,2.2,1,2.3,15,5.1,1
2013/8/5 18:34,1.9,1,2.2,15,2.7,2
2013/8/5 18:35,1.8,1,1.9,15,2.7,1
2013/8/5 18:36,1.7,1,1.8,15,1.5,1
2013/8/5 18:37,1.6,1,1.6,15,2.9,2
2013/8/5 18:38,1.6,1,1.6,16,2.5,1
2013/8/5 18:39,1.5,1,1.6,16,2.2,2
2013/8/5 18:40,1.5,2,1.6,16,2.2,3
2013/8/5 18:41,1.5,2,1.5,16,1.6,4
2013/8/5 18:42,1.4,2,1.5,16,1.3,4
2013/8/5 18:43,1.3,3,1.4,1,1.6,4
2013/8/5 18:44,1.2,3,1.3,1,1.6,4
2013/8/5 18:45,1.1,3,1.2,1,1,8
2013/8/5 18:46,1.1,4,1.1,1,0.8,5
2013/8/5 18:47,1,4,1.1,1,0.8,5
2013/8/5 18:48,0.9,4,1,1,0.8,4
2013/8/5 18:49,0.8,4,0.9,2,1.9,3
2013/8/5 18:50,0.8,4,0.8,2,1.6,3
2013/8/5 18:51,0.7,4,0.8,2,1.6,3
2013/8/5 18:52,0.6,4,0.7,2,1.1,13
2013/8/5 18:53,0.7,4,0.7,3,2.4,12
2013/8/5 18:54,0.8,4,0.8,3,2.2,9
2013/8/5 18:55,0.9,5,0.9,3,2.9,10
2013/8/5 18:56,1.1,9,1.1,4,2.7,8
2013/8/5 18:57,1.2,10,1.2,11,2.5,9
2013/8/5 18:58,1.3,10,1.3,10,3.6,9
2013/8/5 18:59,1.4,10,1.4,10,3.3,9
2013/8/5 19:00,1.4,10,1.4,10,1.8,8
2013/8/5 19:01,1.3,10,1.4,10,0.9,10
2013/8/5 19:02,1.4,10,1.4,10,1.8,11
2013/8/5 19:03,1.3,10,1.4,10,1.8,10
2013/8/5 19:04,1.3,10,1.3,10,2.5,10
2013/8/5 19:05,1.3,10,1.4,10,2.7,10
2013/8/5 19:06,1.4,10,1.4,10,2.1,11
2013/8/5 19:07,1.4,11,1.4,10,2,11
2013/8/5 19:08,1.4,11,1.4,10,1.9,12
2013/8/5 19:09,1.3,11,1.4,10,1.5,13
2013/8/5 19:10,1.4,12,1.4,10,1.8,13
2013/8/5 19:11,1.4,12,1.4,10,1.1,13
2013/8/5 19:12,1.4,12,1.5,12,1.6,14
2013/8/5 19:13,1.5,12,1.5,12,1.8,14
2013/8/5 19:14,1.4,12,1.4,12,1.3,14
2013/8/5 19:15,1.2,13,1.3,12,1.5,13
2013/8/5 19:16,1.1,13,1.2,12,1.3,13
2013/8/5 19:17,1.1,13,1.1,12,1.3,11
2013/8/5 19:18,0.9,13,1,12,1,11
2013/8/5 19:19,0.9,13,0.9,12,1.3,9
2013/8/5 19:20,0.9,12,0.9,12,2,10
2013/8/5 19:21,0.8,12,0.9,12,1.6,10
2013/8/5 19:22,0.8,12,0.8,12,1.1,9
2013/8/5 19:23,0.8,11,0.8,12,1.5,9
2013/8/5 19:24,0.8,10,0.8,12,1.3,8
2013/8/5 19:25,0.8,10,0.8,13,1.4,10
2013/8/5 19:26,0.7,10,0.7,13,1.3,9
2013/8/5 19:27,0.7,9,0.7,13,1.1,8
2013/8/5 19:28,0.8,9,0.8,13,0.9,8
2013/8/5 19:29,0.8,9,0.8,13,1.1,8
2013/8/5 19:30,0.7,9,0.8,12,0.9,9
2013/8/5 19:31,0.7,9,0.7,12,1.1,8
2013/8/5 19:32,0.8,8,0.8,11,1.3,8
2013/8/5 19:33,0.7,8,0.8,11,1.3,8
2013/8/5 19:34,0.7,8,0.7,10,1.3,8
2013/8/5 19:35,0.7,8,0.7,9,0.5,8
2013/8/5 19:36,0.6,8,0.7,9,0.5,8
2013/8/5 19:37,0.5,8,0.6,9,0.1,9
2013/8/5 19:38,0.5,8,0.5,9,0,9
2013/8/5 19:39,0.4,9,0.5,9,0,9
2013/8/5 19:40,0.4,9,0.4,8,0.9,15
2013/8/5 19:41,0.4,9,0.4,8,1,15
2013/8/5 19:42,0.4,10,0.4,8,0.9,15
2013/8/5 19:43,0.4,11,0.4,8,1,15
2013/8/5 19:44,0.4,12,0.4,8,1,16
2013/8/5 19:45,0.4,13,0.4,8,1.1,16
2013/8/5 19:46,0.4,14,0.4,8,0.9,16
2013/8/5 19:47,0.5,15,0.5,8,1,2
2013/8/5 19:48,0.6,16,0.6,15,1.1,1